Olive Branch, MS

5:19 PM CDT on June 22, 2017 (GMT -0500)
Olive Branch

Weather History for KOLV - February, 2013

Change the Weather History Date:

Monday, February 11, 2013

  Actual Average (KMEM) Record (KMEM)
Temperature  
Mean Temperature 48 °F -  
Max Temperature 55 °F 52 °F 79 °F (2017)
Min Temperature 42 °F 33 °F 8 °F (1899)
Degree Days  
Heating Degree Days 16    
Moisture  
Dew Point 38 °F    
Average Humidity 70    
Maximum Humidity 100    
Minimum Humidity 38    
Precipitation  
Precipitation 0.00 in - - ()
Sea Level Pressure  
Sea Level Pressure 30.10 in    
Wind  
Wind Speed 5 mph (WNW)    
Max Wind Speed 14 mph    
Max Gust Speed 18 mph    
Visibility 10 miles    
Events      
Averages and records for this station are not official NWS values.
T = Trace of Precipitation, MM = Missing Value Source: NWS Daily Summary

Daily Weather History Graph

Daily Weather History Graph

Search for Another Location

Airport or City:

Trip Planner

Search our weather history database for the weather conditions in past years. The results will help you decide how hot, cold, wet, or windy it might be!

Date:

Astronomy

Feb. 11, 2013 Rise Set
Actual Time 6:48 AM CST 5:38 PM CST
Civil Twilight 6:22 AM CST 6:04 PM CST
Nautical Twilight 5:53 AM CST 6:34 PM CST
Astronomical Twilight 5:23 AM CST 7:03 PM CST
Moon 7:19 AM CST (2/11) 7:28 PM CST (2/11)
Length of Visible Light 11h 41m
Length of Day
10h 49m
Waxing Crescent, 3% of the Moon is Illuminated
Feb 11
Waxing Crescent
Feb 17
First Quarter
Feb 25
Full
Mar 4
Last Quarter
Mar 11
New

Hourly Weather History & Observations

Time (CST) Temp. Windchill Dew Point Humidity Pressure Visibility Wind Dir Wind Speed Gust Speed Precip Events Conditions
12:15 AM 55.4 °F - 55.4 °F 100% 29.97 in 10.0 mi WSW 6.9 mph - 0.00 in   Clear
12:35 AM 53.6 °F - 53.6 °F 100% 29.98 in 10.0 mi WSW 6.9 mph - 0.00 in   Clear
12:55 AM 53.6 °F - 53.6 °F 100% 30.00 in 10.0 mi SW 6.9 mph - 0.00 in   Clear
1:15 AM 53.6 °F - 53.6 °F 100% 30.00 in 10.0 mi WSW 5.8 mph - 0.00 in   Clear
1:35 AM 51.8 °F - 51.8 °F 100% 30.01 in 9.0 mi West 4.6 mph - 0.00 in   Clear
1:55 AM 51.8 °F - 46.4 °F 82% 30.01 in 9.0 mi West 4.6 mph - 0.00 in   Clear
2:15 AM 51.8 °F - 46.4 °F 82% 30.01 in 9.0 mi West 3.5 mph - 0.00 in   Clear
2:35 AM 50.0 °F - 46.4 °F 87% 30.01 in 10.0 mi WSW 5.8 mph - 0.00 in   Clear
2:55 AM 50.0 °F - 44.6 °F 82% 30.03 in 10.0 mi WSW 5.8 mph - 0.00 in   Clear
3:15 AM 48.2 °F - 42.8 °F 82% 30.03 in 10.0 mi West 6.9 mph - 0.00 in   Clear
3:35 AM 50.0 °F - 39.2 °F 66% 30.03 in 10.0 mi WNW 9.2 mph - 0.00 in   Clear
3:55 AM 48.2 °F - 37.4 °F 66% 30.04 in 10.0 mi WNW 8.1 mph - 0.00 in   Clear
4:15 AM 48.2 °F - 37.4 °F 66% 30.05 in 9.0 mi NW 9.2 mph - 0.00 in   Clear
4:35 AM 46.4 °F 41.5 °F 35.6 °F 66% 30.05 in 9.0 mi NNW 10.4 mph - 0.00 in   Clear
4:55 AM 46.4 °F 41.9 °F 35.6 °F 66% 30.05 in 10.0 mi NW 9.2 mph - 0.00 in   Clear
5:15 AM 46.4 °F 41.5 °F 35.6 °F 66% 30.07 in 10.0 mi NNW 10.4 mph 16.1 mph 0.00 in   Clear
5:35 AM 46.4 °F 40.4 °F 33.8 °F 62% 30.08 in 10.0 mi NNW 13.8 mph 18.4 mph 0.00 in   Clear
5:55 AM 44.6 °F 38.8 °F 33.8 °F 66% 30.10 in 10.0 mi NW 11.5 mph - 0.00 in   Clear
6:50 AM 42.8 °F 38.0 °F 32.0 °F 66% 30.12 in 10.0 mi NNW 8.1 mph - N/A   Mostly Cloudy
7:50 AM 42.8 °F - 32.0 °F 66% 30.16 in 10.0 mi Calm Calm - N/A   Mostly Cloudy
8:50 AM 42.8 °F 40.1 °F 33.8 °F 70% 30.18 in 10.0 mi NNW 4.6 mph - N/A   Mostly Cloudy
9:50 AM 44.6 °F 41.4 °F 32.0 °F 61% 30.19 in 10.0 mi NNW 5.8 mph - N/A   Mostly Cloudy
10:50 AM 46.4 °F - 32.0 °F 57% 30.20 in 10.0 mi Calm Calm - N/A   Mostly Cloudy
11:50 AM 46.4 °F - 30.2 °F 53% 30.21 in 10.0 mi Calm Calm - N/A   Mostly Cloudy
12:50 PM 50.0 °F - 32.0 °F 50% 30.18 in 10.0 mi Calm Calm - N/A   Scattered Clouds
1:50 PM 53.6 °F - 32.0 °F 44% 30.16 in 10.0 mi Calm Calm - N/A   Scattered Clouds
2:45 PM 53.6 °F - 32.0 °F 44% 30.13 in 10.0 mi Calm Calm - N/A   Scattered Clouds
3:45 PM 55.4 °F - 30.2 °F 38% 30.12 in 10.0 mi Calm Calm - N/A   Scattered Clouds
4:55 PM 51.8 °F - 32.0 °F 47% 30.12 in 10.0 mi Calm Calm - N/A   Mostly Cloudy
6:55 PM 46.4 °F - 33.8 °F 62% 30.11 in 10.0 mi Calm Calm - N/A   Mostly Cloudy
7:50 PM 46.4 °F - 35.6 °F 66% 30.15 in 10.0 mi Calm Calm - N/A   Mostly Cloudy
8:15 PM 46.4 °F - 35.6 °F 66% 30.14 in 10.0 mi Calm Calm - 0.00 in   Clear
8:35 PM 46.4 °F - 33.8 °F 62% 30.15 in 9.0 mi Calm Calm - 0.00 in   Clear
8:55 PM 46.4 °F - 33.8 °F 62% 30.18 in 9.0 mi Calm Calm - 0.00 in   Clear
9:15 PM 46.4 °F - 35.6 °F 66% 30.17 in 9.0 mi Calm Calm - 0.00 in   Clear
9:35 PM 44.6 °F - 37.4 °F 76% 30.15 in 10.0 mi Calm Calm - 0.00 in   Clear
9:55 PM 46.4 °F - 35.6 °F 66% 30.14 in 5.0 mi Calm Calm - 0.00 in   Clear
10:15 PM 44.6 °F - 37.4 °F 76% 30.14 in 10.0 mi Calm Calm - 0.00 in   Clear
10:35 PM 44.6 °F - 37.4 °F 76% 30.15 in 10.0 mi Calm Calm - 0.00 in   Clear
10:55 PM 44.6 °F - 35.6 °F 71% 30.17 in 10.0 mi Calm Calm - 0.00 in   Clear
11:15 PM 44.6 °F 43.1 °F 37.4 °F 76% 30.17 in 10.0 mi South 3.5 mph - 0.00 in   Clear
11:35 PM 44.6 °F - 37.4 °F 76% 30.16 in 10.0 mi Calm Calm - 0.00 in   Clear
11:55 PM 44.6 °F - 37.4 °F 76% 30.18 in 10.0 mi Calm Calm - 0.00 in   Clear